[[{"header":{"parameterUnit":"m.s-1","parameterCategory":1,"la1":30.2991,"la2":30.254,"lo1":-89.0895,"lo2":-89.0444,"dy":0.0017,"dx":0.0017,"nx":28,"ny":28,"refTime":"2025-07-03T21:00:00:Z","depth":0,"parameterNumber":2,"parameterNumberName":"U-component_of_WINDS"},"data":[0,0,0,0,0,0,0,0,0,0,0,0,0,0,0,0,0,0,0,0,0,0,0,0,0,0,0,0,0,0,0,0,0,0,0,0,0,0,0,0,0,0,0,0,0,0,0,0,0,0,0,0,0,0,0,0,0,0,0.4254,0.4256,0,0.4395,0.4396,0.4398,0.4451,0.4451,0.445,0.445,0.4599,0.4603,0.4608,0,0,0,0,0,0,0,0,0,0,0,0,0,0.4036,0.404,0.4254,0.4256,0.4257,0.4394,0.4396,0.4398,0.4451,0.4451,0.445,0.445,0.4598,0.4603,0.4608,0,0,0,0,0,0,0,0,0,0,0,0,0,0.4149,0.4041,0.4254,0.43,0.4306,0.4394,0.4396,0.4399,0.4451,0.4451,0.445,0.445,0.4596,0.4602,0.4609,0.4662,0,0,0.4629,0.4632,0,0,0,0,0,0,0,0,0.4143,0.4157,0.4292,0.4297,0.4304,0.4405,0.4374,0.4487,0.4452,0.4396,0.445,0.4449,0.4535,0.4547,0.4575,0.4669,0.4676,0.463,0.4634,0.4636,0.4638,0,0,0,0,0,0,0,0.4135,0.4152,0.431,0.4294,0.4301,0.4316,0.4331,0.4396,0.4468,0.4401,0.4405,0.4421,0.4539,0.4568,0.4579,0.4678,0.4629,0.4635,0.4639,0.4642,0.4824,0.4825,0,0,0,0,0,0,0.4119,0.4145,0.4305,0.4314,0.422,0.432,0.4337,0.4373,0.4467,0.4481,0.4421,0.4423,0.4557,0.4571,0.4584,0.4653,0.4636,0.4642,0.4646,0.4823,0.4824,0.4825,0,0,0,0,0,0,0.4114,0.4132,0.43,0.423,0.4253,0.4325,0.4364,0.4376,0.4406,0.4483,0.4496,0.4438,0.4557,0.4575,0.4642,0.4659,0.4645,0.4651,0.4822,0.4823,0.4824,0.4791,0,0,0,0,0,0,0.4107,0.413,0.415,0.423,0.4256,0.4354,0.4365,0.4379,0.4416,0.442,0.4502,0.4515,0.4558,0.4632,0.4649,0.4668,0.4656,0.4821,0.4822,0.4824,0.4791,0.4791,0.4791,0,0,0,0,0,0.4099,0.4136,0.4151,0.417,0.4282,0.4354,0.437,0.4417,0.4417,0.4439,0.4488,0.4513,0.4654,0.4638,0.4658,0.4679,0.482,0.4822,0.4824,0.4791,0.4791,0.4791,0,0,0,0,0,0,0.4058,0.4148,0.4165,0.4229,0.4283,0.4363,0.4392,0.4416,0.4473,0.4474,0.4532,0.455,0.4612,0.4653,0.4633,0.4736,0.4739,0.4745,0.4707,0.4708,0.4708,0.4697,0.4662,0,0,0,0,0,0.4056,0.4106,0.4182,0.4231,0.4257,0.4319,0.4353,0.4384,0.4444,0.4468,0.4522,0.4581,0.4638,0.4675,0.4733,0.4797,0.4816,0.4821,0.4821,0.4821,0.4825,0.4863,0.4866,0.4832,0.4832,0.4831,0,0,0.4053,0.4108,0.4136,0.4224,0.427,0.4321,0.4339,0.4393,0.4432,0.4477,0.4543,0.4585,0.4654,0.472,0.4751,0.4755,0.4839,0.4823,0.4822,0.4828,0.4865,0.4868,0.4871,0.4833,0.4833,0.4832,0,0,0.4074,0.412,0.4166,0.4212,0.428,0.4322,0.4332,0.4409,0.4438,0.4505,0.454,0.4588,0.4686,0.4734,0.4771,0.4809,0.4834,0.4826,0.4827,0.4863,0.4865,0.4868,0.4882,0.4886,0.4831,0.483,0.483,0,0.4063,0.414,0.4187,0.4239,0.4277,0.4318,0.4366,0.4408,0.4493,0.4519,0.4521,0.4645,0.4694,0.4772,0.4781,0.4809,0.4824,0.4817,0.4861,0.4864,0.4867,0.4881,0.4886,0.4829,0.4829,0.4829,0.483,0,0.4122,0.4175,0.4204,0.4283,0.4324,0.4373,0.443,0.4466,0.4494,0.4535,0.4603,0.4664,0.4734,0.4755,0.4783,0.4837,0.4837,0.4849,0.4853,0.4868,0.4882,0.4888,0.4827,0.4828,0.4828,0.4828,0,0,0.4122,0.4225,0.4235,0.4271,0.435,0.4393,0.4444,0.4511,0.4542,0.4599,0.4644,0.4726,0.4737,0.4779,0.4814,0.4845,0.4871,0.4854,0.4856,0.4855,0.4934,0.4925,0.493,0.4888,0.4889,0.489,0.4929,0,0.4154,0.4246,0.429,0.4363,0.4414,0.4453,0.4498,0.4552,0.4592,0.4641,0.4686,0.4743,0.4754,0.4779,0.4812,0.4861,0.4888,0.4859,0.4932,0.4934,0.4914,0.4937,0.4928,0.4961,0.4934,0.4935,0.4936,0,0.4203,0.4258,0.4336,0.4408,0.4431,0.447,0.4535,0.4581,0.4644,0.4671,0.4717,0.475,0.4807,0.4806,0.4886,0.4865,0.4898,0.4927,0.4929,0.4938,0.4936,0.4948,0.4973,0.4978,0.4945,0.4945,0.4944,0,0.4195,0.4289,0.4348,0.4377,0.4463,0.449,0.4527,0.4589,0.4626,0.4683,0.4708,0.4772,0.4807,0.4856,0.4906,0.4901,0.4981,0.4985,0.5006,0.5005,0.5022,0.502,0.5053,0.5042,0.5042,0.5042,0.5042,0,0.4227,0.4273,0.4345,0.4381,0.4434,0.4485,0.4537,0.4578,0.4632,0.4678,0.4716,0.4759,0.4821,0.4872,0.4912,0.4972,0.4988,0.5012,0.5022,0.5009,0.5006,0.5031,0.5031,0.5043,0.5043,0.5043,0.5042,0,0.4227,0.4278,0.4344,0.4419,0.4439,0.4475,0.4541,0.4578,0.4619,0.4676,0.4693,0.4758,0.482,0.4874,0.4956,0.4982,0.5045,0.5057,0.5023,0.5028,0.5047,0.5044,0.5098,0.5107,0.5089,0.5089,0.5089,0,0.4244,0.428,0.4359,0.4391,0.4428,0.448,0.4517,0.4569,0.4607,0.468,0.4709,0.4773,0.4827,0.4923,0.4979,0.5042,0.5057,0.5071,0.5066,0.5052,0.5057,0.5055,0.5059,0.5071,0.5071,0.5071,0.5071,0,0.4269,0.4291,0.4344,0.4404,0.4448,0.4499,0.4551,0.4576,0.4637,0.4678,0.474,0.4782,0.4865,0.4928,0.4997,0.5037,0.5065,0.5071,0.508,0.5067,0.5046,0.5058,0.5023,0.507,0.507,0.507,0.507,0.507,0.4279,0.4313,0.4373,0.443,0.4474,0.4521,0.456,0.4605,0.4657,0.4727,0.4755,0.4819,0.4881,0.4976,0.5016,0.5067,0.5072,0.5084,0.5087,0.509,0.5087,0.5037,0.508,0.508,0.508,0.508,0.508,0,0.4305,0.4346,0.4397,0.4468,0.4513,0.4533,0.4591,0.4628,0.4683,0.4737,0.4789,0.4861,0.4922,0.4982,0.5047,0.5077,0.5091,0.5092,0.5091,0.51,0.5079,0.5066,0.5079,0.5079,0.5079,0.5079,0.5079,0.5079,0.4325,0.4383,0.4413,0.4494,0.4535,0.4596,0.4628,0.4672,0.4716,0.4793,0.4844,0.4882,0.4939,0.5008,0.5066,0.5082,0.5104,0.5102,0.5122,0.5102,0.5101,0.5101,0.5088,0.5106,0.5106,0.5138,0.5138,0.5138]},{"header":{"parameterUnit":"m.s-1","parameterCategory":1,"la1":30.2991,"la2":30.254,"lo1":-89.0895,"lo2":-89.0444,"dy":0.0017,"dx":0.0017,"nx":28,"ny":28,"refTime":"2025-07-03T21:00:00:Z","depth":0,"parameterNumber":3,"parameterNumberName":"V-component_of_WINDS"},"data":[0,0,0,0,0,0,0,0,0,0,0,0,0,0,0,0,0,0,0,0,0,0,0,0,0,0,0,0,0,0,0,0,0,0,0,0,0,0,0,0,0,0,0,0,0,0,0,0,0,0,0,0,0,0,0,0,0,0,1.3064,1.3066,0,1.322,1.3221,1.3223,1.3169,1.3166,1.3162,1.3159,1.3318,1.3325,1.3332,0,0,0,0,0,0,0,0,0,0,0,0,0,1.2715,1.2722,1.3064,1.3066,1.3068,1.3219,1.3222,1.3224,1.317,1.3165,1.3161,1.3157,1.3315,1.3324,1.3333,0,0,0,0,0,0,0,0,0,0,0,0,0,1.2868,1.2724,1.3064,1.3059,1.306,1.3219,1.3222,1.3224,1.317,1.3165,1.316,1.3155,1.3312,1.3323,1.3334,1.3506,0,0,1.3368,1.3373,0,0,0,0,0,0,0,0,1.286,1.2881,1.3058,1.306,1.3061,1.317,1.3157,1.3319,1.3172,1.3129,1.3159,1.3153,1.3272,1.3287,1.3327,1.3514,1.352,1.3369,1.3376,1.3381,1.3384,0,0,0,0,0,0,0,1.2849,1.2874,1.3126,1.3061,1.3063,1.3048,1.3064,1.3187,1.3228,1.3132,1.3128,1.3148,1.3272,1.3316,1.333,1.3523,1.3369,1.3379,1.3386,1.339,1.385,1.3855,0,0,0,0,0,0,1.2838,1.2866,1.3121,1.313,1.2946,1.3058,1.3076,1.314,1.3226,1.3234,1.3152,1.3145,1.33,1.3317,1.3336,1.3537,1.3381,1.3391,1.3397,1.3844,1.3851,1.3857,0,0,0,0,0,0,1.2831,1.2861,1.3114,1.2997,1.3028,1.307,1.3142,1.3146,1.319,1.3241,1.3248,1.319,1.3297,1.332,1.3462,1.3542,1.3396,1.3406,1.3838,1.3846,1.3854,1.3946,0,0,0,0,0,0,1.2821,1.2859,1.2927,1.2999,1.3035,1.3241,1.3147,1.3153,1.3209,1.3201,1.3278,1.3286,1.3294,1.3446,1.3473,1.3555,1.3415,1.3831,1.3841,1.3851,1.3936,1.3956,1.3973,0,0,0,0,0,1.2809,1.2948,1.2931,1.2962,1.312,1.3245,1.3266,1.3272,1.3216,1.3283,1.3314,1.3284,1.3529,1.3461,1.3492,1.3578,1.3825,1.3838,1.385,1.3927,1.3952,1.3973,0,0,0,0,0,0,1.2886,1.2958,1.2939,1.3106,1.317,1.3236,1.3321,1.33,1.3381,1.337,1.3374,1.3392,1.3537,1.3572,1.3494,1.3744,1.3669,1.3688,1.3717,1.3741,1.3759,1.3747,1.3424,0,0,0,0,0,1.2922,1.3019,1.3076,1.3218,1.3251,1.328,1.3335,1.3334,1.34,1.3427,1.347,1.3534,1.3624,1.3685,1.3772,1.394,1.3953,1.4014,1.4033,1.4048,1.4064,1.4148,1.4174,1.3898,1.3897,1.3897,0,0,1.2999,1.305,1.3111,1.3235,1.3284,1.3381,1.3304,1.3412,1.3483,1.3444,1.3579,1.3612,1.3684,1.3838,1.3908,1.3871,1.4143,1.4064,1.4076,1.4083,1.4164,1.419,1.4213,1.3906,1.3904,1.3903,0,0,1.3187,1.3238,1.3358,1.3407,1.3482,1.3499,1.3528,1.3596,1.3616,1.3752,1.3722,1.3806,1.3965,1.4015,1.4061,1.426,1.4233,1.4289,1.4387,1.4469,1.4491,1.451,1.4576,1.4601,1.4305,1.4305,1.4305,0,1.3273,1.342,1.3423,1.3531,1.3584,1.355,1.3669,1.3718,1.3817,1.3853,1.381,1.4003,1.405,1.4212,1.426,1.43,1.4329,1.428,1.4488,1.4507,1.4525,1.4588,1.4614,1.4311,1.431,1.4309,1.4309,0,1.3518,1.362,1.3708,1.3801,1.3864,1.3978,1.3995,1.4058,1.405,1.4071,1.4206,1.426,1.4354,1.4392,1.4387,1.4552,1.4526,1.4486,1.441,1.4557,1.4616,1.4641,1.4319,1.4317,1.4315,1.4314,0,0,1.3763,1.3852,1.3884,1.3923,1.3999,1.4077,1.4187,1.4277,1.4328,1.4397,1.4486,1.4617,1.4578,1.463,1.463,1.4703,1.4849,1.4653,1.4654,1.4683,1.5027,1.5055,1.5083,1.4832,1.4837,1.484,1.502,0,1.3954,1.4146,1.4149,1.4325,1.4415,1.4381,1.4476,1.4531,1.4552,1.463,1.4653,1.4744,1.4689,1.4719,1.479,1.4817,1.4918,1.4804,1.4911,1.4915,1.4892,1.5115,1.5146,1.5313,1.5043,1.5047,1.505,0,1.4204,1.4276,1.446,1.4516,1.4555,1.464,1.4719,1.4796,1.4855,1.4865,1.492,1.4906,1.5014,1.4934,1.508,1.5002,1.5046,1.5065,1.5071,1.508,1.499,1.5125,1.5367,1.539,1.5088,1.5085,1.5082,0,1.4357,1.4501,1.4628,1.4663,1.4734,1.4793,1.4825,1.488,1.4932,1.5001,1.5034,1.5115,1.5159,1.5221,1.5227,1.517,1.5372,1.5294,1.5379,1.5379,1.5423,1.542,1.5671,1.5456,1.5456,1.5455,1.5455,0,1.4569,1.4682,1.4697,1.4775,1.4898,1.4899,1.502,1.5047,1.5095,1.5174,1.5151,1.5226,1.5232,1.5308,1.5315,1.543,1.5452,1.546,1.5459,1.546,1.5459,1.5487,1.5475,1.5462,1.5461,1.5459,1.5458,0,1.4762,1.4778,1.4912,1.4966,1.4982,1.507,1.5115,1.5187,1.5203,1.5304,1.5328,1.5354,1.5442,1.5454,1.5559,1.5562,1.57,1.569,1.5679,1.5677,1.5759,1.575,1.6036,1.6071,1.5837,1.5839,1.5841,0,1.4895,1.498,1.5041,1.5092,1.5126,1.521,1.5261,1.5263,1.5317,1.5387,1.545,1.5535,1.5603,1.5744,1.5771,1.5848,1.5837,1.5931,1.5849,1.5844,1.5833,1.5826,1.5832,1.5947,1.595,1.5952,1.5954,0,1.5127,1.5128,1.5203,1.5279,1.5341,1.5401,1.5458,1.5501,1.5509,1.557,1.5659,1.5711,1.5814,1.5897,1.5972,1.6003,1.5978,1.5979,1.6002,1.6003,1.5991,1.5993,1.5719,1.5973,1.5971,1.5969,1.5968,1.5967,1.5291,1.5362,1.5414,1.5497,1.5538,1.559,1.5659,1.5682,1.5755,1.5839,1.5835,1.5931,1.5981,1.608,1.6115,1.6188,1.6157,1.6191,1.6199,1.6207,1.6213,1.5981,1.6202,1.6201,1.6201,1.6201,1.62,0,1.5518,1.5548,1.5624,1.5701,1.5765,1.5735,1.5794,1.5849,1.5933,1.5983,1.6048,1.6146,1.6225,1.6256,1.6332,1.6384,1.6374,1.6403,1.6398,1.6404,1.6239,1.6209,1.6409,1.6409,1.6409,1.6409,1.6409,1.6409,1.5643,1.576,1.5767,1.5902,1.5931,1.6024,1.6059,1.6105,1.6144,1.6254,1.6318,1.6337,1.6378,1.6455,1.6524,1.6531,1.6558,1.6592,1.6593,1.6438,1.6417,1.6396,1.6368,1.6599,1.6599,1.6752,1.6753,1.6754]}]]